Regional Weather Roundup
Issued by NWS Wakefield, VA

Home | Current Version | Previous Version | Graphics & Text | Print | Product List | Glossary On
Versions: 1 2 3 4 5 6 7 8 9 10 11 12 13 14 15 16 17 18 19 20 21 22 23 24 25 26 27 28 29 30 31 32 33 34 35 36 37 38 39 40 41 42 43 44 45 46 47 48 49 50
000
ASUS41 KAKQ 230815
RWRAKQ

REGIONAL WEATHER ROUNDUP
NATIONAL WEATHER SERVICE WAKEFIELD VA
400 AM EDT FRI JUN 23 2017

Note: "fair" indicates few or no clouds below 12,000 feet with no
significant weather and/or obstructions to visibility. * = Denotes
station may not report precipitation (e.g., rain,snow,etc.),
thunder or fog.

VAZ042-051-052>054-056-230900-
NORTHERN VIRGINIA

CITY           SKY/WX    TMP DP  RH WIND       PRES   REMARKS
WASH NATIONAL  CLOUDY    78  74  87 S9        29.88F
DULLES         CLOUDY    74  70  87 S9        29.88F
FORT BELVOIR   CLOUDY    77  70  79 CALM      29.88F
QUANTICO       CLOUDY    78  72  81 W9        29.89F
FREDERICKSBRG* CLOUDY    77  71  81 SW8       29.90F
STAFFORD*      CLOUDY    76  73  90 SW5       29.94F
WARRENTON      CLOUDY    76  68  74 SW5       29.89F
CULPEPER*      LGT RAIN  76  70  82 SW7       29.91S
MANASSAS*      CLOUDY    76  71  85 SW9       29.89F
LEESBURG*      CLOUDY    73  73 100 SW3       29.88F
WINCHESTER     LGT RAIN  72  66  83 SW9G17    29.89F
FRONT ROYAL*   PTSUNNY   72  68  88 SW3       29.89F
LURAY*         RAIN      72  68  88 SW8       29.93F
$$

VAZ048-049-060>072-079>083-230900-
CENTRAL AND SOUTH CENTRAL VIRGINIA

CITY           SKY/WX    TMP DP  RH WIND       PRES   REMARKS
RICHMOND       CLOUDY    77  71  82 SW9       29.94F
CHESTERFIELD*  NOT AVBL
PETERSBURG*    LGT RAIN  73  70  91 CALM      29.96F
HANOVER        CLOUDY    76  68  76 SW8       29.95F
TAPPAHANNOCK*  CLOUDY    75  69  81 S5        29.94S
QUINTON*       PTSUNNY   75  73  93 SW6       29.95R
CHARLOTTSVILLE CLOUDY    74  69  85 S6        29.92F
GORDONSVILLE*  PTSUNNY   73  72  94 SW5       29.92F
ORANGE*        CLOUDY    72  68  88 CALM      29.91F
LOUISA*        CLOUDY    77  73  88 SW5       29.92F
BUMPASS*       FAIR      73  72  94 SW5       29.94F
FARMVILLE*     CLOUDY    73  70  92 CALM      29.95F
CREWE*         CLOUDY    73  68  86 CALM      29.97F
FORT PICKETT*  CLOUDY    72  68  88 SW6       29.97F
CHASE CITY*    CLOUDY    73  73  99 CALM      29.99S
CLARKSVILLE*   CLOUDY    72  72 100 S3        29.98F
SOUTH HILL*    CLOUDY    72  72 100 SW5       30.04F
LAWRENCEVILLE* CLOUDY    72  71  97 S3        29.98F
EMPORIA*       CLOUDY    72  70  94 CALM      29.99F
$$

VAZ088>098-230900-
SOUTHEAST VIRGINIA

CITY           SKY/WX    TMP DP  RH WIND       PRES   REMARKS
NORFOLK        MOCLDY    78  72  81 SW14      29.96F
VIRGINIA BEACH CLOUDY    76  70  82 SW10      29.96S
NORFOLK NAVAL  CLOUDY    77  71  82 SW8       29.97F
WEST POINT*    CLOUDY    76  70  81 SW3       29.96S
SALUDA*        FAIR      76  73  88 SW8       29.93F
NEWPORT NEWS   CLOUDY    76  71  85 SW12      29.95F
LANGLEY AFB    CLOUDY    76  72  87 SW13      29.95F
FORT EUSTIS    CLOUDY    76  71  86 SW5       29.94F
WILLIAMSBURG*  CLOUDY    77  72  83 CALM      29.97S
HR EXEC AP*    FAIR      73  70  88 SW7       29.96F
FRANKLIN*      CLOUDY    73  70  88 S6        29.99F
US460-WAKEFLD  CLOUDY    74  72  93 SW6       29.97F
$$

VAZ020-022-025-037-045-230900-
WEST CENTRAL AND SOUTHWEST VIRGINIA

CITY           SKY/WX    TMP DP  RH WIND       PRES   REMARKS
STAUNTON*      CLOUDY    69  66  92 S5        29.98S
WAYNESBORO*    CLOUDY    68  67  98 SW6       29.97F
HOT SPRINGS VA LGT RAIN  64  63  94 SW14G23   30.08S
LYNCHBURG      RAIN      71  70  96 S5        29.97F FOG
DANVILLE       LGT RAIN  72  72 100 SW5       29.99F
SOUTH BOSTON*  CLOUDY    73  71  95 CALM      29.99S
MARTINSVILLE   RAIN      71  69  95 SW5       30.03S
ROANOKE        CLOUDY    71  71 100 CALM      30.00F
BLACKSBURG     CLOUDY    69  67  95 CALM      30.05F
DUBLIN*        LGT RAIN  71  65  83 CALM      30.03F
MARION*        CLOUDY    68  65  88 CALM      30.06F
HILLSVILLE*    LGT RAIN  68  64  86 S8        30.05F
RICHLANDS*     CLOUDY    70  66  89 SW5       30.03F
WISE*          CLOUDY    70  70 100 S7G17     30.02F
ABINGDON*      CLOUDY    70  70 100 CALM      30.01F
$$

MDZ021>025-VAZ099-100-230900-
SOUTHERN MARYLAND AND THE DELMARVA PENINSULA

CITY           SKY/WX    TMP DP  RH WIND       PRES   REMARKS
PATUXENT RIVER CLOUDY    77  70  79 SW8       29.89F
BAY BRIDGE APT PTCLDY    77  72  83 SW6       29.87F
LEONARDTOWN    CLOUDY    75  68  78 SW8       29.92F
DOVER          CLOUDY    76  76 100 S10       29.86F
GEORGETOWN     CLEAR     75  72  90 SW6       29.90F
EASTON         MOCLDY    78  71  79 W8        29.92F
CAMBRIDGE      CLEAR     77  70  78 CALM      29.89F
SALISBURY      MOCLDY    74  73  97 S5        29.90F
OCEAN CITY     MOCLDY    77  73  87 SW8       29.91F
WALLOPS ISLAND PTCLDY    77  73  87 SW8       29.92F
ACCOMACK*      CLOUDY    77  73  86 SW6       29.93F
$$

NCZ012>017-030>032-230900-
NORTH CENTRAL AND EASTERN NORTH CAROLINA

CITY           SKY/WX    TMP DP  RH WIND       PRES   REMARKS
ROANOKE RAPIDS DRIZZLE   72  72 100 S3        30.00F
RALEIGH        LGT RAIN  73  72  96 SW5       30.01F
ELIZABETH CITY CLOUDY    77  73  87 SW10      30.00S
AHOSKIE*         N/A     72  71  96 CALM      30.00F
EDENTON*       CLOUDY    79  73  81 CALM      30.01F
CURRITUCK*     LGT RAIN  77  71  82 SW8       29.99F
KILL DEVIL HLS CLOUDY    78  72  80 SW5       29.99F
MANTEO         CLOUDY    77  72  84 W9        30.01F
CAPE HATTERAS  CLOUDY    80  75  84 W7        30.02F
TARBORO*       NOT AVBL
GOLDSBORO      CLOUDY    76  76 100 SW8       30.00F
WASHINGTON     CLOUDY    74  73  96 SW5       30.02F
GREENVILLE     MOCLDY    75  73  94 CALM      30.03F
NEW BERN       CLOUDY    76  76 100 SW3       30.03F FOG
WILMINGTON     PTCLDY    78  76  93 SW7       30.03F
$$

VAZ048-230900-
ELSEWHERE

CITY           SKY/WX    TMP DP  RH WIND       PRES   REMARKS
HARRISBURG PA  CLOUDY    72  70  93 E3        29.84F
BALTIMORE      CLOUDY    76  73  91 SW7       29.86F
ANNAPOLIS      CLOUDY    78  74  87 VRB6      29.86F
ANDREWS AFB    NOT AVBL
PHILADELPHIA   MOCLDY    77  72  84 S8        29.86F
HENDERSON NC   CLOUDY    69  68  96 SW7       30.00F
GREENSBORO     LGT RAIN  72  72 100 SW10      30.00F
ROCKY MOUNT    LGT RAIN  74  74 100 S6        30.00F
$$

VAZ100-230900-
MARINE

STATION/POSITION TIME  TEMP    WIND        PRES    WAVE   SWELL
                       AIR SEA DIR/SP/G            HT/PER HT/PER
                 (UTC) (F)     (DEG/KT/KT) (MB)    (FT/S) (FT/S)
BRANDYWINE LGT   0748          230/ 16/ 18   N/A
CAPE MAY NJ      0748   74 68  210/  6/  8 1011.6F
LEWES DE         0748   77 68  240/  5/  9 1012.0F
15NM E FENWICK I 0750   71 69  200/ 10/ 10 1013.1F   2/ 6   2/ 6
OCEAN-CITY-INLET 0748   69 68  200/  5/  6 1013.1F
WACHAPREAGUE VA  0748   77 82  240/  5/  7 1013.4F
THOMAS POINT MD  0800   77 78  200/ 10/ 11   N/A
GOOSES REEF MD   0800   78 79  270/ 16/ 19 1012.3    2/ 2
COVE POINT MD    0748   77     260/ 11/ 19 1012.6F
SOLOMONS ISLAND  0748   77 77  230/ 14/ 16   N/A
BISHOPS HEAD MD  0748   79 81  220/ 13/ 15 1012.7F
PINEY POINT MD   0748          260/  7/  9   N/A
POTOMAC MD       0800   78 78  240/ 14/ 17 1011.7    2/ 2
CAMBRIDGE MD     0748   76 81              1012.8F
LEWISETTA VA     0748   77 79  250/ 11/ 12 1012.7F
RAPPAHANNOCK LGT 0748          210/ 13/ 15 1014.3F
STINGRAY PT      0800   77 78  260/ 12/ 16 1013.3
YORK RVR RNG VA  0748   77     250/ 12/ 14 1014.5F
YORKTOWN VA      0748   76 77  230/  9/ 11 1013.7F
JAMESTOWN VA     0800   77 82  240/ 14/ 16   N/A     0
DOMINION TERM VA 0748   77     250/ 10/ 11 1014.7F
KIPTOPEKE VA     0748      74  240/ 13/ 16   N/A
CHES BAY BRIDGE  0748   77 75  250/ 13/ 15 1014.3F
CAPE HENRY VA    0748   77     240/ 11/ 15   N/A
WILLOUBY STN VA  0748   76     230/ 18/ 20 1014.2F
S CRANEY ISL VA  0748   76     220/  7/ 14 1014.7S
CAPE HENRY BUOY  0800      73                N/A     2/ 8
1ST LANDING BUOY 0800   77 74              1014.5    1/ 2
CAPE CHARLES BUO 0751      66                N/A     2/ 9
64NM E OF VA BCH 0750   74 71  230/ 10/ 14 1015.5F   2/ 9   2/ 9
DUCK PIER NC     0748   79 64  240/ 15/ 17 1015.3F
44100 DUCK FRF   0705      69                N/A     2/ 8
OREGON INLET NC  0748          230/ 13/ 15   N/A
HATTERAS NC      0748   78 78  250/  8/ 12 1016.5F
DIAMOND SHLS NC  0750   80 80  260/ 12/ 14 1016.8F   3/ 8   2/ 8
CAPE LOOKOUT NC  0800   79     230/  8/ 11 1016.5F
$$



USA.gov is the U.S. government's official web portal to all federal, state and local government web resources and services.